Location: Chantarel
(45.1638°N, 1.7873°E)
Time: 16:02:19
(UTC+00:00)

Meteor 2-12 Rocket - Pass Details

Date: 03 March 2021
Orbit: 936 x 956 km, 82.5° (Epoch: 11 April)

Event Time Altitude Azimuth Distance (km) Brightness Sun altitude
Rises 18:48:48 0° 183° (S) 3,583 7.5 -12.4°
Reaches altitude 10° 18:51:16 10° 183° (S) 2,645 6.8 -12.8°
Maximum altitude 18:57:19 81° 97° (E) 958 4.4 -13.9°
Drops below altitude 10° 19:03:26 10° 11° (N) 2,676 6.8 -15.0°
Sets 19:05:56 0° 10° (N) 3,628 7.5 -15.4°
